KD9AQS Weather Reports


time (UTC)temp
C
wind
direction
speed
KPH
gust
KPH
rain 1hr
cm
rain 24hr
cm
rain mn
cm
humidity
%
barometer
mb
20260505223034 24 176 8.0 20.9 0.00 0.08 0.08 35 1009.8
20260505221530 24 199 11.3 25.7 0.03 0.08 0.08 34 1009.7
20260505220033 25 134 17.7 27.4 0.08 0.08 0.08 37 1009.8
20260505214626 24 206 3.2 12.9 0.08 0.08 0.08 48 1010.0
20260505213026 24 256 6.4 17.7 0.08 0.08 0.08 46 1010.0
20260505211524 25 274 6.4 19.3 0.00 0.00 0.00 43 1010.0
20260505210026 25 167 9.7 35.4 0.00 0.00 0.00 38 1010.2
20260505204523 26 203 8.0 19.3 0.00 0.00 0.00 39 1010.4
20260505203017 25 252 4.8 19.3 0.00 0.00 0.00 42 1010.5
20260505201513 25 258 6.4 22.5 0.00 0.00 0.00 44 1010.6
20260505200024 25 219 6.4 16.1 0.00 0.00 0.00 44 1010.8
20260505194510 24 227 3.2 12.9 0.00 0.00 0.00 44 1011.0
20260505193005 24 189 4.8 19.3 0.00 0.00 0.00 42 1011.1
20260505191503 24 162 3.2 12.9 0.00 0.00 0.00 45 1011.3
20260505184558 23 237 3.2 22.5 0.00 0.00 0.00 43 1012.1
20260505183055 23 220 4.8 12.9 0.00 0.00 0.00 43 1012.4
20260505181557 23 288 6.4 17.7 0.00 0.00 0.00 45 1012.6
20260505180052 23 251 9.7 19.3 0.00 0.00 0.00 45 1012.7
20260505174556 23 268 9.7 20.9 0.00 0.00 0.00 46 1012.9
20260505173051 23 279 9.7 19.3 0.00 0.00 0.00 47 1013.1
20260505171551 23 195 6.4 16.1 0.00 0.00 0.00 47 1013.4
20260505170044 22 155 6.4 19.3 0.00 0.00 0.00 50 1013.7
20260505164556 22 224 9.7 27.4 0.00 0.00 0.00 48 1013.8
20260505163051 22 257 9.7 25.7 0.00 0.00 0.00 48 1014.0
20260505161540 22 268 11.3 27.4 0.00 0.00 0.00 46 1014.0
20260505153035 22 180 6.4 14.5 0.00 0.00 0.00 51 1013.9
20260505151531 21 172 6.4 17.7 0.00 0.00 0.00 54 1014.1
20260505124506 15 175 0.0 3.2 0.00 0.00 0.00 70 1013.9
20260505123005 15 175 0.0 4.8 0.00 0.00 0.00 70 1013.8
20260505121503 13 175 0.0 1.6 0.00 0.00 0.00 71 1013.7
20260505120000 12 175 0.0 1.6 0.00 0.00 0.00 73 1013.4
20260505114602 12 171 0.0 1.6 0.00 0.00 0.00 78 1013.3
20260505113105 11 171 0.0 0.0 0.00 0.00 0.00 80 1013.0
20260505111556 10 171 0.0 0.0 0.00 0.00 0.00 82 1012.8
20260505110116 10 169 0.0 0.0 0.00 0.00 0.00 82 1012.7
20260505101547 12 169 0.0 0.0 0.00 0.00 0.00 74 1012.7
20260505100045 12 169 0.0 0.0 0.00 0.00 0.00 72 1012.8
20260505094541 12 169 0.0 0.0 0.00 0.00 0.00 70 1012.7
20260505093039 13 169 0.0 1.6 0.00 0.00 0.00 68 1012.7
20260505091537 13 169 0.0 3.2 0.00 0.00 0.00 68 1012.7
20260505090038 13 169 0.0 1.6 0.00 0.00 0.00 66 1012.6
20260505084532 14 169 0.0 3.2 0.00 0.00 0.00 64 1012.6
20260505083029 15 169 0.0 3.2 0.00 0.00 0.00 63 1012.6
20260505081540 15 169 3.2 8.0 0.00 0.00 0.00 63 1012.4
20260505080033 15 163 0.0 9.7 0.00 0.00 0.00 63 1012.4
20260505074525 16 148 3.2 12.9 0.00 0.00 0.00 61 1012.3
20260505073024 16 177 3.2 16.1 0.00 0.00 0.00 62 1012.6
20260505071539 15 184 4.8 11.3 0.00 0.00 0.00 63 1012.7
20260505070018 16 177 3.2 8.0 0.00 0.00 0.00 63 1012.7
20260505064523 16 188 1.6 11.3 0.00 0.00 0.00 62 1012.7
20260505063016 16 184 1.6 6.4 0.00 0.00 0.00 62 1012.8
20260505061515 16 190 1.6 6.4 0.00 0.00 0.00 61 1012.8
20260505060016 16 229 0.0 3.2 0.00 0.00 0.00 62 1012.7
20260505054514 16 229 0.0 3.2 0.00 0.00 0.00 61 1012.7
20260505053017 16 229 1.6 6.4 0.00 0.00 0.00 62 1012.7
20260505051514 16 180 1.6 8.0 0.00 0.00 0.00 63 1012.6
20260505041601 15 200 1.6 4.8 0.00 0.00 0.00 67 1012.6
20260505040105 15 201 0.0 3.2 0.00 0.00 0.00 67 1012.6
20260505034558 15 201 0.0 4.8 0.00 0.00 0.00 67 1012.4
20260505033100 16 201 0.0 1.6 0.00 0.00 0.00 65 1012.5
20260505031559 16 201 0.0 4.8 0.00 0.00 0.00 64 1012.6
20260505024556 16 82 0.0 4.8 0.00 0.00 0.00 62 1012.6
20260505023058 17 70 0.0 3.2 0.00 0.00 0.00 63 1012.7
20260505021559 17 68 0.0 3.2 0.00 0.00 0.00 60 1012.6
20260505020057 18 63 0.0 4.8 0.00 0.00 0.00 59 1012.6
20260505014554 18 57 0.0 3.2 0.00 0.00 0.00 57 1012.6
20260505013052 18 49 0.0 4.8 0.00 0.00 0.00 57 1012.5
20260505011555 19 28 0.0 3.2 0.00 0.00 0.00 57 1012.4
20260505010100 20 27 0.0 3.2 0.00 0.00 0.00 55 1012.4
20260505004552 20 27 0.0 3.2 0.00 0.00 0.00 53 1012.2
20260505003051 21 202 0.0 4.8 0.00 0.00 0.00 52 1012.0
20260505001550 21 221 0.0 4.8 0.00 0.00 0.00 50 1011.9
20260505000058 22 220 3.2 8.0 0.00 0.00 0.00 48 1011.9
20260504234549 22 227 3.2 8.0 0.00 0.00 0.00 47 1011.9
20260504233053 22 300 1.6 12.9 0.00 0.00 0.00 45 1011.9
20260504231548 23 277 6.4 12.9 0.00 0.00 0.00 43 1011.8
20260504230048 23 267 3.2 14.5 0.00 0.00 0.00 44 1011.7
20260504224549 23 283 6.4 19.3 0.00 0.00 0.00 41 1011.8